FLOCK 2E-7

Last updated on Sat Apr 07 2018 00:15:05 GMT+0000 (Coordinated Universal Time)

1 41565U 98067JP 18096.03238924 .09445108 12367-4 82242-3 0 9991 2 41565 51.6020 296.9742 0010034 275.5763 84.4484 16.38288374106019

Satellite not in orbit